Location: Arroyo de Valdeoliva
(40.1604°N, 4.9878°W)
Time: 14:50:58
(UTC+00:00)

Meteor 2-6 Rocket - Pass Details

Date: 11 December 2025
Orbit: 805 x 912 km, 81.3° (Epoch: 16 January)

Event Time Altitude Azimuth Distance (km) Brightness Sun altitude
Rises 19:19:35 0° 189° (S) 3,380 7.6 -26.9°
Reaches altitude 10° 19:21:57 10° 190° (S) 2,465 6.8 -27.4°
Maximum altitude 19:27:34 85° 278° (W) 876 4.2 -28.4°
Enters shadow 19:28:01 76° 346° (NNW) 897 4.2 -28.5°
